Location: Alfords
(31.4624°N, 83.9238°W)
Time: 11:34:59
(UTC+00:00)

ISS - Visible Passes

Search period start: 17 September 2021 00:00
Search period end: 27 September 2021 00:00
Orbit: 419 x 423 km, 51.6° (Epoch: 17 September)

Date Brightness Start Highest point End Pass type
(mag) Time Alt. Az. Time Alt. Az. Time Alt. Az.
17 Sep -1.9 00:58:39 10° WSW 01:01:39 30° NW 01:04:35 10° NNE visible
18 Sep -3.0 00:11:26 10° WSW 00:14:43 54° NW 00:18:01 10° NE visible
19 Sep -0.7 01:03:52 10° NW 01:05:02 11° NNW 01:06:13 10° N visible
20 Sep -1.0 00:15:36 10° W 00:17:57 17° NW 00:20:18 10° N visible
